Regional Weather Roundup
Issued by NWS

Home | Current Version | Previous Version | Text Only | Print | Product List | Glossary On
Versions: 1 2 3 4 5 6 7 8 9 10 11 12 13 14 15 16 17 18 19 20 21 22 23 24 25 26 27 28 29 30 31 32 33 34 35 36 37 38 39 40 41 42 43 44 45 46 47 48 49 50
000
ASUS42 KFFC 250303
RWRGA
WEATHER ROUNDUP FOR GEORGIA
NATIONAL WEATHER SERVICE PEACHTREE CITY GA
1100 PM EDT TUE MAY 24 2016

NOTE: "FAIR" INDICATES FEW OR NO CLOUDS BELOW 12,000 FEET WITH NO
SIGNIFICANT WEATHER AND/OR OBSTRUCTIONS TO VISIBILITY.

* = USE WITH CAUTION. THE STATIONS MARKED WITH AN ASTERISK MAY NOT
REPORT WEATHER SUCH AS PRECIPITATION, FOG, OR THUNDER AND ARE NOT
QUALITY CONTROLLED BY NWS.

THE REMARK "TC" DENOTES TEMPERATURE READING IN DEGREES CELSIUS.

GAZ001>058-250400-
NORTH GEORGIA

CITY           SKY/WX    TMP DP  RH WIND       PRES   REMARKS
ATLANTA        CLEAR     72  53  51 S6        30.17R
ATHENS         CLEAR     67  57  70 CALM      30.17R
CHAMBLEE       CLEAR     68  54  60 CALM      30.17R
PEACHTREE CITY CLEAR     63  58  83 CALM      30.18R
ROME           CLEAR     67  58  72 CALM      30.14R
WEST ATLANTA   CLEAR     65  58  78 CALM      30.17R
GAINESVILLE    CLEAR     72  51  47 W3        30.20R
CARTERSVILLE   CLEAR     63  59  87 CALM      30.16R


CITY           SKY/WX    TMP DP  RH WIND       PRES   REMARKS
DALTON*        CLEAR     64  59  82 CALM      30.15R
MARIETTA       CLEAR     71  56  59 CALM      30.17R
CANTON*        CLEAR     68  52  56 N3        30.19R
BLAIRSVILLE*     N/A    N/A N/A N/A MISG      30.22R
$$

GAZ059>098-102>109-250400-
CENTRAL GEORGIA

CITY           SKY/WX    TMP DP  RH WIND       PRES   REMARKS
AUGUSTA-BUSH   CLEAR     63  62  97 CALM      30.15R
AUGUSTA-DANIEL CLEAR     76  57  51 CALM      30.17R
COLUMBUS       CLEAR     72  57  59 E5        30.15R
MACON          CLEAR     66  62  87 CALM      30.17R
ROBINS AFB     CLEAR     66  62  89 CALM      30.16R


CITY           SKY/WX    TMP DP  RH WIND       PRES   REMARKS
LAGRANGE*      CLEAR     65  61  86 CALM      30.17R
SYLVANIA*      CLOUDY    76  67  75 S3        30.18R
MILLEDGEVILLE* CLEAR     68  63  83 CALM      30.17R
$$

GAZ099>101-110>166-250400-
SOUTH GEORGIA

CITY           SKY/WX    TMP DP  RH WIND       PRES   REMARKS
SAVANNAH       MOCLDY    72  65  78 S5        30.18R
VALDOSTA       PTCLDY    75  61  61 SE6       30.17R
ALMA           PTCLDY    71  61  70 S3        30.18R
ST SIMONS      CLOUDY    76  65  68 SE7       30.18R
FT STEWART     MOCLDY    70  65  82 CALM      30.16R
ALBANY         CLEAR     70  54  56 CALM      30.18R
HUNTER AFB     MOCLDY    73  68  85 S3        30.16R
MOODY AFB      PTCLDY    74  60  61 E5        30.16R
BRUNSWICK      CLOUDY    79  70  73 S5        30.19R


CITY           SKY/WX    TMP DP  RH WIND       PRES   REMARKS
BAINBRIDGE*    PTCLDY    72  59  64 CALM      30.15R
MOULTRIE*      CLEAR     70  61  73 CALM      30.16R
VIDALIA*       CLOUDY    73  61  64 S3        30.17R
WAYCROSS*      PTCLDY    73  61  65 S7        30.18R
DOUGLAS*       PTCLDY    75  59  57 CALM      30.19R
$$



USA.gov is the U.S. government's official web portal to all federal, state and local government web resources and services.